When you browse on this site, cookies collect data to enhance your experience and personalize the content and advertising you see.
Visit our Privacy Policy to learn more. By continuing to use the site, you agree to this use of cookies and data.
  • In Czech Republic
  • List of Countries
  • For 7 days
  • Water Temperature
  • Satellite Maps
  • Weather Map
  • Weather Widgets
  • user-avatar
    Login

    Hourly Weather Prokino

    Today, 11 December, Tuesday

    Time Temperature Precipitation Wind Pressure Humidity
    00:00 -7°C° 0 mm 3 mps 756 mmHg 91%
    01:00 -8°C° 0 mm 4 mps 756 mmHg 90%
    02:00 -8°C° 0.1 mm 4 mps 756 mmHg 90%
    03:00 -8°C° 0.1 mm 4 mps 757 mmHg 90%
    04:00 -7°C° 0 mm 3 mps 756 mmHg 91%
    05:00 -7°C° 0.1 mm 3 mps 757 mmHg 91%
    06:00 -7°C° 0.1 mm 3 mps 757 mmHg 91%
    07:00 -7°C° 0.1 mm 3 mps 757 mmHg 91%
    08:00 -7°C° 0.1 mm 3 mps 757 mmHg 91%
    09:00 -7°C° 0.1 mm 3 mps 757 mmHg 91%
    10:00 -7°C° 0 mm 3 mps 757 mmHg 91%
    11:00 -7°C° 0.1 mm 3 mps 757 mmHg 91%
    12:00 -7°C° 0.1 mm 3 mps 758 mmHg 91%
    13:00 -6°C° 0.1 mm 3 mps 758 mmHg 91%
    14:00 -5°C° 0 mm 2 mps 758 mmHg 92%
    15:00 -5°C° 0 mm 2 mps 758 mmHg 92%
    16:00 -3°C° 0 mm 1 mps 758 mmHg 94%
    17:00 -5°C° 0 mm 2 mps 758 mmHg 94%
    18:00 -5°C° 0 mm 2 mps 759 mmHg 95%
    19:00 -5°C° 0 mm 2 mps 759 mmHg 95%
    20:00 -5°C° 0 mm 2 mps 759 mmHg 95%
    21:00 -5°C° 0 mm 2 mps 759 mmHg 95%
    22:00 -5°C° 0 mm 2 mps 759 mmHg 95%
    23:00 -5°C° 0 mm 2 mps 759 mmHg 95%

    Tomorrow, 12 December, Wednesday

    Time Temperature Precipitation Wind Pressure Humidity
    00:00 -5°C° 0 mm 2 mps 759 mmHg 95%
    01:00 -5°C° 0 mm 2 mps 759 mmHg 95%
    02:00 -5°C° 0.1 mm 2 mps 759 mmHg 95%
    03:00 -6°C° 0.1 mm 2 mps 759 mmHg 94%
    04:00 -6°C° 0.1 mm 2 mps 759 mmHg 94%
    05:00 -6°C° 0.1 mm 2 mps 759 mmHg 94%
    06:00 -6°C° 0.1 mm 2 mps 759 mmHg 94%
    07:00 -6°C° 0.1 mm 2 mps 758 mmHg 94%
    08:00 -6°C° 0.2 mm 2 mps 758 mmHg 94%
    09:00 -6°C° 0.2 mm 2 mps 758 mmHg 94%
    10:00 -6°C° 0.2 mm 2 mps 758 mmHg 93%
    11:00 -6°C° 0.1 mm 2 mps 758 mmHg 93%
    12:00 -6°C° 0.1 mm 2 mps 758 mmHg 92%
    13:00 -5°C° 0.1 mm 2 mps 757 mmHg 91%
    14:00 -6°C° 0 mm 2 mps 757 mmHg 91%
    15:00 -6°C° 0 mm 2 mps 757 mmHg 92%
    16:00 -6°C° 0 mm 2 mps 757 mmHg 93%
    17:00 -6°C° 0 mm 2 mps 757 mmHg 93%
    18:00 -6°C° 0 mm 2 mps 757 mmHg 93%
    19:00 -6°C° 0 mm 2 mps 757 mmHg 93%
    20:00 -6°C° 0.2 mm 2 mps 757 mmHg 94%
    21:00 -6°C° 0.2 mm 2 mps 757 mmHg 94%
    22:00 -6°C° 0.2 mm 2 mps 757 mmHg 95%
    23:00 -4°C° 0.3 mm 1 mps 757 mmHg 95%

    Day after tomorrow, 13 December, Thursday

    Time Temperature Precipitation Wind Pressure Humidity
    00:00 -4°C° 0.3 mm 1 mps 757 mmHg 96%
    01:00 -4°C° 0.3 mm 1 mps 757 mmHg 96%
    02:00 -4°C° 0.1 mm 1 mps 757 mmHg 96%
    03:00 -4°C° 0.1 mm 1 mps 757 mmHg 96%
    04:00 -4°C° 0.1 mm 1 mps 757 mmHg 97%
    05:00 -4°C° 0 mm 1 mps 757 mmHg 97%
    06:00 -6°C° 0 mm 1 mps 757 mmHg 97%
    07:00 -6°C° 0 mm 1 mps 757 mmHg 97%
    08:00 -4°C° 0 mm 1 mps 758 mmHg 96%
    09:00 -5°C° 0 mm 0 mps 758 mmHg 96%
    10:00 -5°C° 0 mm 0 mps 759 mmHg 96%
    11:00 -4°C° 0 mm 1 mps 759 mmHg 95%
    12:00 -3°C° 0 mm 1 mps 759 mmHg 94%
    13:00 -3°C° 0 mm 1 mps 759 mmHg 94%
    14:00 -3°C° 0 mm 1 mps 760 mmHg 95%
    15:00 -4°C° 0 mm 1 mps 760 mmHg 95%
    16:00 -4°C° 0 mm 1 mps 761 mmHg 96%
    17:00 -4°C° 0 mm 1 mps 761 mmHg 96%
    18:00 -6°C° 0 mm 2 mps 761 mmHg 95%
    19:00 -6°C° 0 mm 2 mps 762 mmHg 95%
    20:00 -7°C° 0 mm 2 mps 762 mmHg 93%
    21:00 -7°C° 0 mm 2 mps 763 mmHg 92%
    22:00 -7°C° 0 mm 2 mps 763 mmHg 90%
    23:00 -8°C° 0 mm 2 mps 763 mmHg 92%

    14 December, Friday

    Time Temperature Precipitation Wind Pressure Humidity
    00:00 -9°C° 0 mm 2 mps 763 mmHg 93%
    01:00 -12°C° 0 mm 2 mps 764 mmHg 95%
    02:00 -12°C° 0 mm 2 mps 764 mmHg 96%
    03:00 -13°C° 0 mm 2 mps 764 mmHg 96%
    04:00 -14°C° 0 mm 2 mps 764 mmHg 97%
    05:00 -14°C° 0 mm 2 mps 764 mmHg 97%
    06:00 -14°C° 0 mm 2 mps 764 mmHg 97%
    07:00 -11°C° 0 mm 1 mps 764 mmHg 97%
    08:00 -11°C° 0 mm 1 mps 764 mmHg 97%
    09:00 -11°C° 0 mm 1 mps 764 mmHg 97%
    10:00 -11°C° 0 mm 1 mps 764 mmHg 97%
    11:00 -10°C° 0 mm 1 mps 764 mmHg 96%
    12:00 -10°C° 0 mm 1 mps 764 mmHg 95%
    13:00 -9°C° 0 mm 1 mps 764 mmHg 94%
    14:00 -10°C° 0 mm 1 mps 763 mmHg 94%
    15:00 -10°C° 0 mm 1 mps 763 mmHg 95%
    16:00 -11°C° 0 mm 1 mps 763 mmHg 96%
    17:00 -11°C° 0 mm 1 mps 763 mmHg 96%
    18:00 -11°C° 0 mm 1 mps 763 mmHg 95%
    19:00 -12°C° 0 mm 1 mps 763 mmHg 95%
    20:00 -12°C° 0 mm 1 mps 762 mmHg 94%
    21:00 -12°C° 0 mm 1 mps 762 mmHg 94%
    22:00 -11°C° 0 mm 1 mps 762 mmHg 94%
    23:00 -11°C° 0 mm 1 mps 761 mmHg 93%

    15 December, Saturday

    Time Temperature Precipitation Wind Pressure Humidity
    00:00 -11°C° 0 mm 1 mps 761 mmHg 92%
    01:00 -11°C° 0 mm 1 mps 761 mmHg 92%
    02:00 -11°C° 0 mm 1 mps 761 mmHg 91%
    03:00 -11°C° 0 mm 1 mps 760 mmHg 91%
    04:00 -11°C° 0 mm 1 mps 760 mmHg 90%
    05:00 -11°C° 0 mm 1 mps 760 mmHg 90%
    06:00 -11°C° 0 mm 1 mps 760 mmHg 91%
    07:00 -13°C° 0 mm 2 mps 759 mmHg 91%
    08:00 -13°C° 0 mm 2 mps 759 mmHg 92%
    09:00 -13°C° 0 mm 2 mps 759 mmHg 93%
    10:00 -13°C° 0 mm 2 mps 759 mmHg 94%
    11:00 -12°C° 0 mm 2 mps 759 mmHg 94%
    12:00 -10°C° 0 mm 2 mps 759 mmHg 93%
    13:00 -10°C° 0 mm 2 mps 759 mmHg 92%
    14:00 -9°C° 0 mm 2 mps 759 mmHg 93%
    15:00 -9°C° 0 mm 2 mps 759 mmHg 93%
    16:00 -8°C° 0 mm 2 mps 759 mmHg 94%
    17:00 -8°C° 0 mm 2 mps 759 mmHg 94%
    18:00 -7°C° 0 mm 2 mps 760 mmHg 94%
    19:00 -8°C° 0 mm 3 mps 760 mmHg 94%
    20:00 -7°C° 0 mm 3 mps 760 mmHg 94%
    21:00 -7°C° 0 mm 3 mps 760 mmHg 94%
    22:00 -6°C° 0 mm 3 mps 760 mmHg 94%
    23:00 -6°C° 0 mm 3 mps 760 mmHg 94%

    16 December, Sunday

    Time Temperature Precipitation Wind Pressure Humidity
    00:00 -6°C° 0 mm 3 mps 760 mmHg 94%
    01:00 -5°C° 0 mm 3 mps 761 mmHg 94%
    02:00 -5°C° 0 mm 3 mps 761 mmHg 93%
    03:00 -5°C° 0 mm 3 mps 761 mmHg 93%
    04:00 -5°C° 0 mm 3 mps 761 mmHg 93%
    05:00 -6°C° 0 mm 3 mps 762 mmHg 93%
    06:00 -6°C° 0 mm 3 mps 762 mmHg 93%
    07:00 -6°C° 0 mm 3 mps 762 mmHg 93%
    08:00 -5°C° 0 mm 2 mps 762 mmHg 93%
    09:00 -5°C° 0 mm 2 mps 762 mmHg 93%
    10:00 -5°C° 0 mm 2 mps 762 mmHg 93%
    11:00 -5°C° 0 mm 2 mps 762 mmHg 93%
    12:00 -4°C° 0 mm 2 mps 763 mmHg 93%
    13:00 -4°C° 0 mm 2 mps 763 mmHg 93%
    14:00 -4°C° 0 mm 2 mps 763 mmHg 94%
    15:00 -4°C° 0 mm 2 mps 763 mmHg 94%
    16:00 -4°C° 0 mm 2 mps 763 mmHg 95%
    17:00 -3°C° 0 mm 2 mps 763 mmHg 96%
    18:00 -3°C° 0 mm 2 mps 763 mmHg 96%
    19:00 -3°C° 0 mm 2 mps 764 mmHg 96%
    20:00 -4°C° 0 mm 2 mps 764 mmHg 96%
    21:00 -4°C° 0 mm 2 mps 764 mmHg 96%
    22:00 -4°C° 0 mm 2 mps 764 mmHg 96%
    23:00 -5°C° 0 mm 2 mps 764 mmHg 96%
    Show more